User: anonymous   Login
Location: Colebrook
(42.0017°N, 73.0973°W)
Time: 05:34:18
(UTC-04:00)
Language:

Explorer 7 - Orbit

View from above orbital plane
View from above orbital plane
View from above satellite
View from above satellite

Ground track
Ground track

The orbit data is extracted from the following two-line orbital elements,

1    22U 59009A   21293.65094107  .00000962  00000-0  93182-4 0  9990
2    22  50.2847 321.0465 0138081 332.3972  26.9691 14.95766030298680
Epoch (UTC): 20 October 2021 15:37:21
Eccentricity: 0.0138081
inclination: 50.2847°
perigee height: 484 km
apogee height: 676 km
right ascension of ascending node: 321.0465°
argument of perigee: 332.3972°
revolutions per day: 14.95766030
mean anomaly at epoch: 26.9691°
orbit number at epoch: 29868

The dashed part of the orbit path shows where the satellite is in the earth's shadow,  

DLR